PDA6120 UKWW-LCLK

Flight info

Callsign PDA6120
Flight time 2h 24m
Altitude 33000
Route NIROV N743 LAVDA DCT TUVAP M861 RAKUR/N0448F330 UM856 BAG UP29 HISAR UB545 OKLAM/N0452F340 UM853 AYT/N0452F350 UA16 TOMBI M855 DASNI M601 BONEK
Aircraft A321/M-SDE3FGHIJ4RWY/LB1

Departure

Time 2026-05-05 16:26
Airport Vinnytsia/Gavyryshivka International Airport (UKWW)

Arrival

Time 2026-05-05 18:51
Airport Larnaca International Airport (LCLK)
Time Latitude Longitude Altitude Speed Heading
2026-05-05 16:19 49.24291 28.60614 969 ft 0 kts 317°
2026-05-05 16:22 49.24308 28.60609 983 ft 5 kts
2026-05-05 16:22 49.24329 28.60767 978 ft 13 kts 56°
2026-05-05 16:23 49.24446 28.60972 976 ft 17 kts 49°
2026-05-05 16:23 49.24447 28.61115 971 ft 15 kts 146°
2026-05-05 16:23 49.24246 28.61389 978 ft 24 kts 138°
2026-05-05 16:24 49.24109 28.61577 982 ft 29 kts 138°
2026-05-05 16:24 49.23945 28.61799 966 ft 34 kts 138°
2026-05-05 16:24 49.23586 28.62290 974 ft 34 kts 139°
2026-05-05 16:25 49.23458 28.62454 968 ft 14 kts 165°
2026-05-05 16:25 49.23444 28.62482 967 ft 5 kts 336°
2026-05-05 16:25 49.23497 28.62411 976 ft 17 kts 318°
2026-05-05 16:26 49.24378 28.61214 979 ft 146 kts 318°
2026-05-05 16:26 49.26076 28.59029 2128 ft 156 kts 318°
2026-05-05 16:27 49.26946 28.58000 2581 ft 166 kts 327°
2026-05-05 16:27 49.28172 28.57817 2743 ft 195 kts 15°
2026-05-05 16:27 49.29246 28.59161 2871 ft 219 kts 61°
2026-05-05 16:27 49.29481 28.61525 2988 ft 240 kts 104°
2026-05-05 16:28 49.28623 28.63762 3122 ft 256 kts 143°
2026-05-05 16:28 49.26998 28.64967 3417 ft 266 kts 168°
2026-05-05 16:28 49.25171 28.65536 3980 ft 271 kts 173°
2026-05-05 16:28 49.23303 28.65976 4631 ft 273 kts 173°
2026-05-05 16:29 49.21427 28.66482 5293 ft 275 kts 171°
2026-05-05 16:29 49.19610 28.67352 5930 ft 280 kts 159°
2026-05-05 16:29 49.17819 28.68553 6591 ft 283 kts 156°
2026-05-05 16:29 49.16044 28.69869 7255 ft 284 kts 155°
2026-05-05 16:30 49.14274 28.71241 7883 ft 287 kts 154°
2026-05-05 16:30 49.12490 28.72638 8511 ft 290 kts 154°
2026-05-05 16:30 49.10687 28.74049 9164 ft 292 kts 154°
2026-05-05 16:30 49.08872 28.75468 9795 ft 295 kts 154°
2026-05-05 16:31 49.07030 28.76903 10261 ft 303 kts 153°
2026-05-05 16:31 49.05085 28.78413 10385 ft 324 kts 153°
2026-05-05 16:31 49.03041 28.79991 10506 ft 343 kts 153°
2026-05-05 16:31 49.00852 28.81674 10635 ft 362 kts 153°
2026-05-05 16:32 48.98523 28.83271 10914 ft 373 kts 161°
2026-05-05 16:32 48.95987 28.84221 11397 ft 378 kts 172°
2026-05-05 16:32 48.93344 28.84420 11874 ft 384 kts 183°
2026-05-05 16:32 48.90661 28.84066 12369 ft 389 kts 185°
2026-05-05 16:33 48.87953 28.83682 12886 ft 393 kts 185°
2026-05-05 16:33 48.85220 28.83290 13425 ft 397 kts 185°
2026-05-05 16:33 48.82455 28.82891 13934 ft 401 kts 185°
2026-05-05 16:33 48.79669 28.82492 14428 ft 404 kts 184°
2026-05-05 16:34 48.76903 28.82100 14957 ft 406 kts 184°
2026-05-05 16:34 48.74084 28.81698 15490 ft 408 kts 184°
2026-05-05 16:34 48.71246 28.81292 16018 ft 411 kts 184°
2026-05-05 16:34 48.68394 28.80888 16549 ft 413 kts 184°
2026-05-05 16:35 48.65522 28.80482 17084 ft 415 kts 184°
2026-05-05 16:35 48.62647 28.80081 17599 ft 418 kts 184°
2026-05-05 16:35 48.59740 28.79672 18129 ft 420 kts 184°
2026-05-05 16:35 48.56821 28.79262 18582 ft 422 kts 184°
2026-05-05 16:36 48.53925 28.78851 18997 ft 424 kts 184°
2026-05-05 16:36 48.50981 28.78433 19450 ft 426 kts 184°
2026-05-05 16:36 48.48017 28.78012 19869 ft 428 kts 184°
2026-05-05 16:36 48.45047 28.77593 20293 ft 430 kts 184°
2026-05-05 16:37 48.42055 28.77174 20699 ft 433 kts 183°
2026-05-05 16:37 48.39054 28.76754 21089 ft 435 kts 183°
2026-05-05 16:37 48.36038 28.76327 21492 ft 437 kts 184°
2026-05-05 16:37 48.33003 28.75897 21882 ft 439 kts 183°
2026-05-05 16:38 48.29953 28.75474 22247 ft 442 kts 183°
2026-05-05 16:38 48.26881 28.75053 22617 ft 444 kts 183°
2026-05-05 16:38 48.23844 28.74639 22991 ft 446 kts 183°
2026-05-05 16:38 48.20749 28.74214 23352 ft 448 kts 183°
2026-05-05 16:39 48.17632 28.73782 23696 ft 450 kts 183°
2026-05-05 16:39 48.14511 28.73425 24003 ft 451 kts 179°
2026-05-05 16:39 48.11379 28.73673 24302 ft 450 kts 170°
2026-05-05 16:39 48.08314 28.74602 24583 ft 450 kts 163°
2026-05-05 16:40 48.05266 28.75746 24860 ft 453 kts 164°
2026-05-05 16:40 48.02206 28.76890 25155 ft 455 kts 164°
2026-05-05 16:40 47.99169 28.78020 25441 ft 457 kts 163°
2026-05-05 16:40 47.96076 28.79168 25725 ft 459 kts 164°
2026-05-05 16:41 47.92971 28.80317 26010 ft 461 kts 164°
2026-05-05 16:41 47.89853 28.81469 26293 ft 463 kts 164°
2026-05-05 16:41 47.86721 28.82624 26578 ft 465 kts 164°
2026-05-05 16:41 47.83578 28.83778 26853 ft 467 kts 164°
2026-05-05 16:42 47.80414 28.84937 27115 ft 469 kts 164°
2026-05-05 16:42 47.77239 28.86101 27385 ft 471 kts 164°
2026-05-05 16:42 47.74051 28.87274 27710 ft 472 kts 164°
2026-05-05 16:42 47.70870 28.88442 28110 ft 470 kts 164°
2026-05-05 16:43 47.67743 28.89588 28527 ft 469 kts 164°
2026-05-05 16:43 47.64583 28.90748 28945 ft 468 kts 164°
2026-05-05 16:43 47.61425 28.91906 29355 ft 466 kts 164°
2026-05-05 16:43 47.58279 28.93054 29747 ft 465 kts 164°
2026-05-05 16:44 47.55134 28.94196 30115 ft 465 kts 164°
2026-05-05 16:44 47.51992 28.95338 30404 ft 465 kts 164°
2026-05-05 16:44 47.48852 28.96481 30715 ft 465 kts 164°
2026-05-05 16:44 47.45714 28.97623 31008 ft 464 kts 165°
2026-05-05 16:45 47.42582 28.98761 31302 ft 464 kts 165°
2026-05-05 16:45 47.39499 28.99875 31598 ft 463 kts 165°
2026-05-05 16:45 47.36367 29.01004 31891 ft 462 kts 165°
2026-05-05 16:45 47.33247 29.02128 32223 ft 461 kts 165°
2026-05-05 16:46 47.30135 29.03248 32556 ft 459 kts 165°
2026-05-05 16:46 47.27034 29.04366 32882 ft 458 kts 165°
2026-05-05 16:46 47.20837 29.06598 32992 ft 458 kts 165°
2026-05-05 16:47 47.14691 29.08811 32996 ft 458 kts 165°
2026-05-05 16:47 47.08506 29.11030 32997 ft 458 kts 165°
2026-05-05 16:48 47.02319 29.13238 33006 ft 457 kts 165°
2026-05-05 16:48 46.96149 29.15431 32998 ft 456 kts 165°
2026-05-05 16:49 46.90025 29.17614 33011 ft 456 kts 165°
2026-05-05 16:49 46.83860 29.19806 33013 ft 456 kts 165°
2026-05-05 16:50 46.77695 29.21986 33019 ft 456 kts 165°
2026-05-05 16:50 46.71521 29.24172 33020 ft 456 kts 165°
2026-05-05 16:51 46.65405 29.26328 33024 ft 456 kts 165°
2026-05-05 16:51 46.59238 29.28490 33025 ft 456 kts 165°
2026-05-05 16:52 46.53069 29.30653 33029 ft 456 kts 165°
2026-05-05 16:52 46.46971 29.33120 33023 ft 454 kts 156°
2026-05-05 16:53 46.41469 29.37431 33022 ft 452 kts 148°
2026-05-05 16:53 46.36057 29.42077 33030 ft 452 kts 148°
2026-05-05 16:54 46.30638 29.46686 33043 ft 452 kts 149°
2026-05-05 16:54 46.25210 29.51277 33045 ft 452 kts 148°
2026-05-05 16:55 46.19823 29.55827 33053 ft 452 kts 148°
2026-05-05 16:55 46.14387 29.60410 33055 ft 452 kts 149°
2026-05-05 16:56 46.08956 29.64986 33056 ft 453 kts 148°
2026-05-05 16:56 46.03511 29.69562 33060 ft 453 kts 148°
2026-05-05 16:57 45.98101 29.74094 33063 ft 453 kts 148°
2026-05-05 16:57 45.92650 29.78641 33071 ft 453 kts 148°
2026-05-05 16:58 45.87194 29.83197 33068 ft 453 kts 149°
2026-05-05 16:58 45.81742 29.87740 33073 ft 453 kts 148°
2026-05-05 16:59 45.76322 29.92241 33074 ft 453 kts 148°
2026-05-05 16:59 45.70868 29.96767 33078 ft 453 kts 149°
2026-05-05 17:00 45.65413 30.01275 33072 ft 453 kts 148°
2026-05-05 17:00 45.59949 30.05779 33069 ft 453 kts 149°
2026-05-05 17:01 45.54481 30.10276 33063 ft 453 kts 149°
2026-05-05 17:01 45.49049 30.14734 33068 ft 454 kts 148°
2026-05-05 17:02 45.43573 30.19219 33064 ft 454 kts 148°
2026-05-05 17:02 45.38099 30.23696 33063 ft 454 kts 148°
2026-05-05 17:03 45.32606 30.28174 33066 ft 455 kts 148°
2026-05-05 17:03 45.27156 30.32616 33075 ft 455 kts 148°
2026-05-05 17:04 45.21652 30.37082 33064 ft 456 kts 148°
2026-05-05 17:04 45.16140 30.41538 33062 ft 457 kts 148°
2026-05-05 17:05 45.10615 30.46001 33063 ft 457 kts 148°
2026-05-05 17:05 45.05090 30.50463 33082 ft 458 kts 148°
2026-05-05 17:06 44.99590 30.54890 33072 ft 459 kts 148°
2026-05-05 17:06 44.94038 30.59343 33073 ft 459 kts 148°
2026-05-05 17:07 44.88462 30.63775 33074 ft 460 kts 148°
2026-05-05 17:07 44.82876 30.68198 33077 ft 460 kts 148°
2026-05-05 17:08 44.77339 30.72597 33081 ft 461 kts 147°
2026-05-05 17:08 44.71743 30.77029 33067 ft 462 kts 148°
2026-05-05 17:09 44.66139 30.81447 33065 ft 462 kts 148°
2026-05-05 17:09 44.60524 30.85867 33088 ft 463 kts 148°
2026-05-05 17:10 44.54933 30.90263 33062 ft 464 kts 147°
2026-05-05 17:10 44.49296 30.94685 33060 ft 465 kts 148°
2026-05-05 17:11 44.43652 30.99101 33061 ft 465 kts 148°
2026-05-05 17:11 44.37996 31.03513 33055 ft 466 kts 148°
2026-05-05 17:12 44.32333 31.07920 33061 ft 466 kts 148°
2026-05-05 17:12 44.26705 31.12281 33065 ft 466 kts 148°
2026-05-05 17:13 44.21024 31.16655 33076 ft 467 kts 148°
2026-05-05 17:13 44.15344 31.21042 33091 ft 467 kts 148°
2026-05-05 17:14 44.09653 31.25439 33082 ft 468 kts 148°
2026-05-05 17:14 44.03947 31.29832 33073 ft 469 kts 148°
2026-05-05 17:15 43.98280 31.34174 33072 ft 469 kts 148°
2026-05-05 17:15 43.92564 31.38547 33086 ft 469 kts 148°
2026-05-05 17:16 43.86846 31.42920 33083 ft 469 kts 148°
2026-05-05 17:16 43.81139 31.47274 33070 ft 469 kts 148°
2026-05-05 17:17 43.75461 31.51592 33060 ft 469 kts 148°
2026-05-05 17:17 43.69750 31.55920 33077 ft 468 kts 148°
2026-05-05 17:18 43.64033 31.60241 33068 ft 468 kts 148°
2026-05-05 17:18 43.58328 31.64554 33066 ft 468 kts 148°
2026-05-05 17:19 43.52647 31.68832 33061 ft 468 kts 148°
2026-05-05 17:19 43.46794 31.72818 33073 ft 471 kts 158°
2026-05-05 17:20 43.40432 31.75099 33070 ft 473 kts 165°
2026-05-05 17:20 43.34023 31.77198 33062 ft 474 kts 165°
2026-05-05 17:21 43.27612 31.79303 33061 ft 474 kts 165°
2026-05-05 17:22 43.18026 31.82434 33075 ft 474 kts 165°
2026-05-05 17:22 43.11604 31.84523 33066 ft 474 kts 165°
2026-05-05 17:23 43.05176 31.86603 33063 ft 475 kts 165°
2026-05-05 17:23 42.98750 31.88687 33087 ft 475 kts 165°
2026-05-05 17:24 42.92366 31.90754 33076 ft 475 kts 165°
2026-05-05 17:24 42.85925 31.92829 33060 ft 475 kts 165°
2026-05-05 17:25 42.79490 31.94901 33061 ft 476 kts 165°
2026-05-05 17:25 42.73059 31.97014 33059 ft 476 kts 165°
2026-05-05 17:26 42.66673 31.99142 33066 ft 476 kts 165°
2026-05-05 17:26 42.60235 32.01281 33056 ft 476 kts 165°
2026-05-05 17:27 42.53797 32.03398 33057 ft 476 kts 165°
2026-05-05 17:27 42.47351 32.05509 33058 ft 476 kts 165°
2026-05-05 17:28 42.40953 32.07615 33060 ft 477 kts 165°
2026-05-05 17:28 42.34503 32.09731 33057 ft 477 kts 165°
2026-05-05 17:29 42.28043 32.11835 33055 ft 477 kts 165°
2026-05-05 17:29 42.21585 32.13929 33056 ft 478 kts 165°
2026-05-05 17:30 42.15161 32.16012 33058 ft 478 kts 165°
2026-05-05 17:30 42.08691 32.18117 33053 ft 479 kts 165°
2026-05-05 17:31 42.02216 32.20218 33053 ft 479 kts 166°
2026-05-05 17:31 41.95740 32.22309 33060 ft 479 kts 166°
2026-05-05 17:32 41.89296 32.24385 33060 ft 479 kts 166°
2026-05-05 17:32 41.82821 32.26470 33060 ft 479 kts 166°
2026-05-05 17:33 41.76335 32.28558 33048 ft 479 kts 166°
2026-05-05 17:33 41.69850 32.30629 33070 ft 479 kts 166°
2026-05-05 17:34 41.63401 32.32672 33061 ft 480 kts 166°
2026-05-05 17:34 41.56902 32.34728 33053 ft 480 kts 166°
2026-05-05 17:35 41.50393 32.36779 33060 ft 481 kts 166°
2026-05-05 17:35 41.43879 32.38828 33086 ft 481 kts 166°
2026-05-05 17:36 41.37360 32.40882 33058 ft 482 kts 166°
2026-05-05 17:36 41.30871 32.42914 33041 ft 483 kts 166°
2026-05-05 17:37 41.24333 32.44958 33063 ft 483 kts 166°
2026-05-05 17:37 41.17788 32.46994 33088 ft 483 kts 166°
2026-05-05 17:38 41.11240 32.49037 33052 ft 484 kts 166°
2026-05-05 17:38 41.04679 32.51081 33039 ft 485 kts 167°
2026-05-05 17:39 40.98149 32.53110 33040 ft 485 kts 167°
2026-05-05 17:39 40.91576 32.55154 33062 ft 486 kts 167°
2026-05-05 17:40 40.84979 32.57196 33039 ft 487 kts 167°
2026-05-05 17:40 40.78370 32.59224 33041 ft 488 kts 167°
2026-05-05 17:41 40.71799 32.61252 33038 ft 488 kts 167°
2026-05-05 17:41 40.65180 32.63295 33033 ft 489 kts 167°
2026-05-05 17:42 40.58551 32.65328 33033 ft 489 kts 167°
2026-05-05 17:42 40.51920 32.67356 33048 ft 490 kts 168°
2026-05-05 17:43 40.45329 32.69363 33050 ft 489 kts 168°
2026-05-05 17:43 40.38695 32.71377 33031 ft 490 kts 168°
2026-05-05 17:44 40.32054 32.73400 33028 ft 490 kts 168°
2026-05-05 17:44 40.25413 32.75428 33030 ft 490 kts 168°
2026-05-05 17:45 40.18810 32.77425 33029 ft 490 kts 168°
2026-05-05 17:45 40.12134 32.79200 33012 ft 489 kts 177°
2026-05-05 17:46 40.05406 32.78745 33009 ft 482 kts 196°
2026-05-05 17:46 39.99203 32.75765 33006 ft 472 kts 212°
2026-05-05 17:47 39.93364 32.71814 33017 ft 473 kts 212°
2026-05-05 17:47 39.87555 32.67936 33011 ft 473 kts 211°
2026-05-05 17:48 39.81685 32.64035 33020 ft 474 kts 211°
2026-05-05 17:48 39.75813 32.60124 33034 ft 474 kts 211°
2026-05-05 17:49 39.69953 32.56220 33039 ft 473 kts 211°
2026-05-05 17:49 39.64138 32.52356 33047 ft 472 kts 211°
2026-05-05 17:50 39.58285 32.48478 33054 ft 472 kts 211°
2026-05-05 17:50 39.52442 32.44619 33055 ft 472 kts 211°
2026-05-05 17:51 39.46596 32.40767 33056 ft 471 kts 211°
2026-05-05 17:51 39.40763 32.36909 33045 ft 471 kts 211°
2026-05-05 17:52 39.34968 32.33100 33045 ft 470 kts 211°
2026-05-05 17:52 39.29130 32.29307 33057 ft 469 kts 211°
2026-05-05 17:53 39.23306 32.25528 33055 ft 468 kts 211°
2026-05-05 17:53 39.17489 32.21752 33061 ft 468 kts 211°
2026-05-05 17:54 39.11706 32.18009 33062 ft 468 kts 211°
2026-05-05 17:54 39.05892 32.14251 33065 ft 467 kts 211°
2026-05-05 17:55 39.00088 32.10495 33071 ft 467 kts 211°
2026-05-05 17:55 38.94286 32.06750 33061 ft 466 kts 210°
2026-05-05 17:56 38.88530 32.03049 33064 ft 465 kts 210°
2026-05-05 17:56 38.82748 31.99333 33077 ft 465 kts 210°
2026-05-05 17:57 38.76966 31.95622 33075 ft 464 kts 210°
2026-05-05 17:57 38.71186 31.91932 33075 ft 464 kts 210°
2026-05-05 17:58 38.65417 31.88261 33083 ft 463 kts 210°
2026-05-05 17:58 38.59699 31.84614 33071 ft 462 kts 210°
2026-05-05 17:59 38.53961 31.80954 33074 ft 460 kts 210°
2026-05-05 17:59 38.48237 31.77319 33071 ft 459 kts 210°
2026-05-05 18:00 38.43485 31.74308 33070 ft 458 kts 209°
2026-05-05 18:00 38.36863 31.70110 33076 ft 457 kts 210°
2026-05-05 18:01 38.32134 31.67119 33077 ft 456 kts 210°
2026-05-05 18:01 38.26452 31.63542 33074 ft 455 kts 210°
2026-05-05 18:02 38.20776 31.59967 33069 ft 455 kts 210°
2026-05-05 18:02 38.13899 31.56613 33065 ft 461 kts 194°
2026-05-05 18:03 38.08525 31.56019 33050 ft 464 kts 189°
2026-05-05 18:03 38.05422 31.55263 33053 ft 457 kts 201°
2026-05-05 18:03 38.02488 31.53783 33059 ft 453 kts 210°
2026-05-05 18:04 37.97000 31.49905 33046 ft 452 kts 212°
2026-05-05 18:04 37.91451 31.46135 33040 ft 453 kts 211°
2026-05-05 18:05 37.85878 31.42420 33046 ft 453 kts 212°
2026-05-05 18:05 37.80321 31.38669 33046 ft 453 kts 212°
2026-05-05 18:06 37.74815 31.34909 33031 ft 452 kts 213°
2026-05-05 18:06 37.69280 31.31138 33033 ft 453 kts 212°
2026-05-05 18:07 37.63721 31.27377 33037 ft 453 kts 212°
2026-05-05 18:07 37.58155 31.23620 33019 ft 454 kts 212°
2026-05-05 18:08 37.52625 31.19895 33013 ft 455 kts 212°
2026-05-05 18:08 37.47040 31.16140 33011 ft 455 kts 212°
2026-05-05 18:09 37.41459 31.12382 33025 ft 455 kts 213°
2026-05-05 18:09 37.35868 31.08627 33015 ft 456 kts 213°
2026-05-05 18:10 37.30311 31.04898 33020 ft 456 kts 213°
2026-05-05 18:10 37.24710 31.01149 33014 ft 456 kts 213°
2026-05-05 18:11 37.19109 30.97420 33009 ft 456 kts 213°
2026-05-05 18:11 37.13517 30.93698 33006 ft 455 kts 213°
2026-05-05 18:12 37.07962 30.89998 33003 ft 456 kts 212°
2026-05-05 18:12 37.02365 30.86274 32995 ft 455 kts 213°
2026-05-05 18:13 36.96762 30.82562 33013 ft 455 kts 212°
2026-05-05 18:13 36.90732 30.79958 33009 ft 466 kts 193°
2026-05-05 18:14 36.84251 30.79724 32985 ft 473 kts 182°
2026-05-05 18:14 36.77666 30.79967 32991 ft 473 kts 182°
2026-05-05 18:15 36.71086 30.80184 32995 ft 473 kts 182°
2026-05-05 18:15 36.64494 30.80400 32978 ft 474 kts 182°
2026-05-05 18:16 36.57906 30.80628 32993 ft 474 kts 182°
2026-05-05 18:16 36.51362 30.80855 32999 ft 474 kts 182°
2026-05-05 18:17 36.44766 30.81084 32998 ft 474 kts 182°
2026-05-05 18:17 36.38178 30.81309 33006 ft 474 kts 182°
2026-05-05 18:18 36.31588 30.81533 33013 ft 474 kts 182°
2026-05-05 18:18 36.25034 30.81751 33009 ft 474 kts 182°
2026-05-05 18:19 36.18446 30.81979 32994 ft 474 kts 183°
2026-05-05 18:19 36.11851 30.82200 33005 ft 474 kts 183°
2026-05-05 18:20 36.05251 30.82413 33012 ft 474 kts 183°
2026-05-05 18:20 35.98690 30.82695 33005 ft 475 kts 182°
2026-05-05 18:21 35.92087 30.83125 33015 ft 476 kts 181°
2026-05-05 18:21 35.85473 30.83571 33025 ft 476 kts 181°
2026-05-05 18:22 35.78868 30.83984 33003 ft 476 kts 182°
2026-05-05 18:22 35.72303 30.84375 33005 ft 476 kts 180°
2026-05-05 18:22 35.69021 30.85050 33012 ft 483 kts 167°
2026-05-05 18:23 35.65890 30.86603 33018 ft 489 kts 153°
2026-05-05 18:23 35.63093 30.89000 33008 ft 493 kts 139°
2026-05-05 18:23 35.60780 30.92116 33010 ft 494 kts 125°
2026-05-05 18:23 35.59067 30.95767 33016 ft 494 kts 112°
2026-05-05 18:24 35.57941 30.99745 33015 ft 493 kts 106°
2026-05-05 18:24 35.55900 31.07799 33013 ft 495 kts 106°
2026-05-05 18:25 35.53857 31.15823 33020 ft 496 kts 106°
2026-05-05 18:25 35.51797 31.23900 33025 ft 496 kts 106°
2026-05-05 18:26 35.49733 31.31986 33029 ft 496 kts 107°
2026-05-05 18:26 35.47662 31.40067 33037 ft 496 kts 107°
2026-05-05 18:27 35.45594 31.48085 33044 ft 496 kts 107°
2026-05-05 18:27 35.43501 31.56157 33032 ft 497 kts 107°
2026-05-05 18:28 35.40354 31.68293 33029 ft 499 kts 107°
2026-05-05 18:28 35.38247 31.76394 33042 ft 499 kts 107°
2026-05-05 18:29 35.36140 31.84473 33048 ft 498 kts 107°
2026-05-05 18:29 35.34040 31.92485 33048 ft 497 kts 107°
2026-05-05 18:30 35.32978 31.96517 32778 ft 498 kts 107°
2026-05-05 18:30 35.31901 32.00596 31508 ft 511 kts 108°
2026-05-05 18:30 35.30805 32.04756 30604 ft 514 kts 108°
2026-05-05 18:30 35.29702 32.08948 29602 ft 518 kts 109°
2026-05-05 18:31 35.28605 32.13143 28581 ft 519 kts 108°
2026-05-05 18:31 35.27510 32.17343 27972 ft 513 kts 108°
2026-05-05 18:31 35.26448 32.21424 27373 ft 508 kts 108°
2026-05-05 18:31 35.25380 32.25523 26756 ft 504 kts 108°
2026-05-05 18:32 35.24314 32.29594 26145 ft 500 kts 108°
2026-05-05 18:32 35.23257 32.33613 25540 ft 495 kts 108°
2026-05-05 18:32 35.22206 32.37597 24941 ft 491 kts 108°
2026-05-05 18:32 35.21159 32.41552 24339 ft 487 kts 108°
2026-05-05 18:33 35.20118 32.45479 23751 ft 484 kts 108°
2026-05-05 18:33 35.19083 32.49379 23104 ft 480 kts 108°
2026-05-05 18:33 35.18061 32.53228 22536 ft 474 kts 108°
2026-05-05 18:33 35.17064 32.56985 21975 ft 468 kts 108°
2026-05-05 18:34 35.16068 32.60744 21429 ft 462 kts 108°
2026-05-05 18:34 35.15082 32.64457 20885 ft 457 kts 108°
2026-05-05 18:34 35.14104 32.68125 20370 ft 451 kts 108°
2026-05-05 18:34 35.13132 32.71752 19861 ft 447 kts 108°
2026-05-05 18:35 35.12168 32.75341 19382 ft 443 kts 108°
2026-05-05 18:35 35.11209 32.78908 18893 ft 440 kts 108°
2026-05-05 18:35 35.10263 32.82443 18408 ft 437 kts 108°
2026-05-05 18:35 35.09324 32.85961 17885 ft 434 kts 108°
2026-05-05 18:36 35.08392 32.89439 17389 ft 429 kts 108°
2026-05-05 18:36 35.07480 32.92837 16917 ft 425 kts 108°
2026-05-05 18:36 35.06552 32.96245 16407 ft 421 kts 108°
2026-05-05 18:36 35.05603 32.99607 15913 ft 417 kts 109°
2026-05-05 18:37 35.04642 33.02930 15393 ft 414 kts 109°
2026-05-05 18:37 35.03680 33.06220 14883 ft 410 kts 109°
2026-05-05 18:37 35.02721 33.09488 14351 ft 407 kts 109°
2026-05-05 18:37 35.01773 33.12726 13824 ft 404 kts 109°
2026-05-05 18:38 35.00837 33.15938 13241 ft 400 kts 109°
2026-05-05 18:38 34.99929 33.19070 12724 ft 395 kts 108°
2026-05-05 18:38 34.99027 33.22203 12199 ft 389 kts 108°
2026-05-05 18:38 34.98135 33.25303 11677 ft 385 kts 108°
2026-05-05 18:39 34.97253 33.28364 11150 ft 380 kts 108°
2026-05-05 18:39 34.96382 33.31381 10747 ft 372 kts 108°
2026-05-05 18:39 34.95539 33.34292 10635 ft 356 kts 108°
2026-05-05 18:39 34.94728 33.37081 10508 ft 342 kts 108°
2026-05-05 18:40 34.93965 33.39694 10382 ft 318 kts 108°
2026-05-05 18:40 34.93247 33.42143 9998 ft 301 kts 108°
2026-05-05 18:40 34.92709 33.44568 9342 ft 292 kts 97°
2026-05-05 18:40 34.92392 33.46999 8689 ft 290 kts 97°
2026-05-05 18:41 34.92076 33.49410 8153 ft 286 kts 97°
2026-05-05 18:41 34.91762 33.51793 7623 ft 283 kts 98°
2026-05-05 18:41 34.91447 33.54149 7105 ft 281 kts 97°
2026-05-05 18:41 34.91133 33.56487 6594 ft 278 kts 98°
2026-05-05 18:42 34.90827 33.58761 6066 ft 276 kts 98°
2026-05-05 18:42 34.90517 33.61057 5530 ft 273 kts 98°
2026-05-05 18:42 34.90210 33.63331 5123 ft 268 kts 98°
2026-05-05 18:42 34.89908 33.65573 4894 ft 268 kts 99°
2026-05-05 18:43 34.89606 33.67803 4438 ft 263 kts 99°
2026-05-05 18:43 34.89319 33.69928 4266 ft 247 kts 98°
2026-05-05 18:43 34.89050 33.71924 4141 ft 228 kts 98°
2026-05-05 18:43 34.88803 33.73742 4022 ft 206 kts 99°
2026-05-05 18:44 34.88578 33.75393 3761 ft 193 kts 99°
2026-05-05 18:44 34.88378 33.76996 3352 ft 190 kts 93°
2026-05-05 18:44 34.88478 33.78557 3052 ft 186 kts 76°
2026-05-05 18:44 34.88928 33.80044 3055 ft 188 kts 61°
2026-05-05 18:45 34.89693 33.81333 3049 ft 188 kts 45°
2026-05-05 18:45 34.90716 33.82314 3050 ft 188 kts 30°
2026-05-05 18:45 34.91927 33.82913 3058 ft 188 kts 12°
2026-05-05 18:45 34.93222 33.83077 3056 ft 188 kts 356°
2026-05-05 18:46 34.94500 33.82795 3060 ft 187 kts 340°
2026-05-05 18:46 34.95665 33.82102 3059 ft 187 kts 325°
2026-05-05 18:46 34.96622 33.81049 3059 ft 186 kts 309°
2026-05-05 18:46 34.97298 33.79738 3057 ft 186 kts 294°
2026-05-05 18:47 34.97663 33.78229 2977 ft 187 kts 278°
2026-05-05 18:47 34.97676 33.76667 2737 ft 185 kts 263°
2026-05-05 18:47 34.97337 33.75160 2504 ft 184 kts 248°
2026-05-05 18:47 34.96681 33.73825 2277 ft 184 kts 233°
2026-05-05 18:48 34.95793 33.72697 2053 ft 184 kts 227°
2026-05-05 18:48 34.94892 33.71594 1816 ft 183 kts 227°
2026-05-05 18:48 34.94040 33.70553 1605 ft 173 kts 229°
2026-05-05 18:48 34.93229 33.69564 1403 ft 160 kts 227°
2026-05-05 18:49 34.92458 33.68624 1204 ft 155 kts 229°
2026-05-05 18:49 34.91707 33.67707 1015 ft 152 kts 226°
2026-05-05 18:49 34.90965 33.66802 819 ft 150 kts 227°
2026-05-05 18:49 34.90227 33.65901 641 ft 149 kts 227°
2026-05-05 18:50 34.89499 33.65006 452 ft 147 kts 227°
2026-05-05 18:50 34.88772 33.64106 252 ft 149 kts 229°
2026-05-05 18:50 34.88043 33.63213 46 ft 148 kts 228°
2026-05-05 18:50 34.87387 33.62410 16 ft 113 kts 224°
2026-05-05 18:51 34.86993 33.61912 21 ft 47 kts 229°
2026-05-05 18:51 34.86773 33.61656 17 ft 42 kts 221°
2026-05-05 18:51 34.86623 33.61466 16 ft 20 kts 238°
2026-05-05 18:51 34.86672 33.61342 19 ft 14 kts 316°
2026-05-05 18:52 34.86718 33.61264 19 ft 11 kts 278°
2026-05-05 18:52 34.86683 33.61187 21 ft 10 kts 227°
2026-05-05 18:52 34.86637 33.61121 21 ft 10 kts 253°
2026-05-05 18:52 34.86670 33.61045 21 ft 11 kts 315°
2026-05-05 18:53 34.86725 33.60979 20 ft 12 kts 315°
2026-05-05 18:53 34.86774 33.60919 20 ft 9 kts 315°
2026-05-05 18:53 34.86826 33.60893 20 ft 8 kts 34°
2026-05-05 18:53 34.86866 33.60941 20 ft 6 kts 44°
2026-05-05 18:54 34.86877 33.60955 22 ft 0 kts 45°